РПИ Сыктывкар

РПИ Сыктывкар

РПИ Сыктывкар является структурным подразделением VATRUS.

В зону ответственности Сыктывкарского центра в сети VATSIM входит воздушное пространство над территориями Республики Коми, а так же частью Ненецкого АО.

Руководитель РПИ

Alexey Kaznakov*

Инструкторы РПИ
Входит в состав
ЗЦ Санкт-Петербург

Диспетчеры РПИ

Диспетчер Рейтинг Допуски *
Akhmadjon Saidov Instructor UUYY_CTR
Alexey Zimin Instructor UUYY_CTR
Nikita Assorov Instructor UUYY_CTR

Аэропорты РПИ

ICAO Город Название Погода
UUYY Сыктывкар Сыктывкар UUYY 010200Z 00000MPS CAVOK 09/06 Q1021 R36/CLRD61 NOSIG RMK QFE756/1009